Location: Ravensburg
(47.7866°N, 9.6124°E)
Time: 17:28:52
(UTC+01:00)

FO-29 - Visible Passes

Search period start: 14 March 2026 00:00
Search period end: 24 March 2026 00:00
Orbit: 800 x 1320 km, 98.5° (Epoch: 14 March)

Date Brightness Start Highest point End Pass type
(mag) Time Alt. Az. Time Alt. Az. Time Alt. Az.
14 Mar 10.9 19:30:28 10° NE 19:36:28 25° E 19:42:40 10° SE visible
14 Mar 10.1 21:14:40 10° NNE 21:22:05 80° WNW 21:29:56 10° SSW visible
14 Mar 12.0 23:00:55 10° N 23:06:09 22° NW 23:11:37 10° W visible
15 Mar 12.3 05:49:26 10° ENE 05:52:31 14° NE 05:55:46 10° NNE visible
15 Mar 10.2 20:19:33 10° NNE 20:26:49 51° E 20:34:26 10° S visible
15 Mar 11.0 22:04:50 10° N 22:11:41 43° WNW 22:18:54 10° SW visible
15 Mar 12.6 23:52:54 10° NNW 23:54:58 11° NW 23:57:04 10° WNW visible
16 Mar 11.0 19:25:13 10° NE 19:31:07 24° E 19:37:10 10° SE visible
16 Mar 10.0 21:09:17 10° NNE 21:16:49 84° WNW 21:24:42 10° SSW visible
16 Mar 11.9 22:55:25 10° N 23:00:55 23° NW 23:06:39 10° WSW visible
17 Mar 12.3 05:44:15 10° ENE 05:47:14 14° NE 05:50:23 10° NNE visible
17 Mar 10.2 20:14:13 10° NNE 20:21:31 49° E 20:29:04 10° S visible
17 Mar 11.0 21:59:25 10° N 22:06:27 45° WNW 22:13:47 10° SW visible
17 Mar 12.6 23:47:04 10° NNW 23:49:46 12° NW 23:52:30 10° WNW visible
18 Mar 11.0 19:20:00 10° NE 19:25:46 23° E 19:31:38 10° SE visible
18 Mar 10.0 21:03:56 10° NNE 21:11:33 88° WNW 21:19:27 10° SSW visible
18 Mar 11.9 22:49:58 10° N 22:55:42 25° NW 23:01:39 10° WSW visible
19 Mar 12.4 05:39:03 10° ENE 05:41:58 14° NE 05:45:00 10° NNE visible
19 Mar 10.3 20:08:54 10° NNE 20:16:14 46° E 20:23:42 10° SSE visible
19 Mar 10.9 21:54:01 10° N 22:01:13 48° WNW 22:08:38 10° SW visible
19 Mar 12.5 23:41:22 10° NNW 23:44:34 13° NW 23:47:48 10° WNW visible
20 Mar 11.1 19:14:48 10° NE 19:20:25 21° E 19:26:04 10° SE visible
20 Mar 10.0 20:58:35 10° NNE 21:06:17 87° ESE 21:14:12 10° SSW visible
20 Mar 11.8 22:44:31 10° N 22:50:29 26° NW 22:56:37 10° WSW visible
21 Mar 12.5 05:33:53 10° ENE 05:36:41 13° NE 05:39:37 10° NNE visible
21 Mar 10.4 20:03:38 10° NNE 20:10:56 43° E 20:18:19 10° SSE visible
21 Mar 10.8 21:48:39 10° N 21:55:58 51° WNW 22:03:28 10° SW visible
21 Mar 12.5 23:35:46 10° NNW 23:39:22 14° NW 23:43:02 10° WNW visible
22 Mar 11.2 19:09:38 10° NE 19:15:03 20° E 19:20:29 10° SE visible
22 Mar 10.0 20:53:15 10° NNE 21:01:01 83° ESE 21:08:54 10° SSW visible
22 Mar 11.8 22:39:06 10° N 22:45:16 28° NW 22:51:34 10° WSW visible
23 Mar 12.5 05:28:44 10° ENE 05:31:26 13° NE 05:34:14 10° NNE visible
23 Mar 10.5 19:58:21 10° NNE 20:05:37 41° E 20:12:54 10° SSE visible
23 Mar 10.7 21:43:17 10° N 21:50:44 54° WNW 21:58:17 10° SW visible
23 Mar 12.5 23:30:13 10° NNW 23:34:10 15° NW 23:38:10 10° WNW visible
